Date_Time,Julian_Date,Latitude,Longitude,Instrument_Depth,U,V,Speed,Direction
(yyyy-mm-dd hh:mn:ss UTC),(JD),(+ deg. North),(+ deg. East),(m),(cm/s),(cm/s),(cm/s),(deg True)
1984-07-18 21:30:00 UTC,2445900.395833,29.6633,-93.4786,0090,8.00,0.28,8.0000,88.0000
1984-07-18 22:00:00 UTC,2445900.416667,29.6633,-93.4786,0090,7.00,0.24,7.0000,88.0000
1984-07-18 22:30:00 UTC,2445900.437500,29.6633,-93.4786,0090,7.56,2.60,8.0000,71.0000
1984-07-18 23:00:00 UTC,2445900.458333,29.6633,-93.4786,0090,8.09,3.95,9.0000,64.0000
1984-07-18 23:30:00 UTC,2445900.479167,29.6633,-93.4786,0090,3.41,3.66,5.0000,43.0000
1984-07-19 00:00:00 UTC,2445900.500000,29.6633,-93.4786,0090,-3.01,3.99,5.0000,323.0000
1984-07-19 00:30:00 UTC,2445900.520833,29.6633,-93.4786,0090,-6.06,3.50,7.0000,300.0000
1984-07-19 01:00:00 UTC,2445900.541667,29.6633,-93.4786,0090,-5.20,3.00,6.0000,300.0000
1984-07-19 01:30:00 UTC,2445900.562500,29.6633,-93.4786,0090,-2.46,3.15,4.0000,322.0000
1984-07-19 02:00:00 UTC,2445900.583333,29.6633,-93.4786,0090,0.21,2.99,3.0000,4.0000
1984-07-19 02:30:00 UTC,2445900.604167,29.6633,-93.4786,0090,3.50,1.94,4.0000,61.0000
1984-07-19 03:00:00 UTC,2445900.625000,29.6633,-93.4786,0090,4.99,-0.26,5.0000,93.0000
1984-07-19 03:30:00 UTC,2445900.645833,29.6633,-93.4786,0090,4.95,-0.70,5.0000,98.0000
1984-07-19 04:00:00 UTC,2445900.666667,29.6633,-93.4786,0090,4.99,-0.26,5.0000,93.0000
1984-07-19 04:30:00 UTC,2445900.687500,29.6633,-93.4786,0090,5.99,-0.42,6.0000,94.0000
1984-07-19 05:00:00 UTC,2445900.708333,29.6633,-93.4786,0090,5.91,-1.04,6.0000,100.0000
1984-07-19 05:30:00 UTC,2445900.729167,29.6633,-93.4786,0090,4.99,0.35,5.0000,86.0000
1984-07-19 06:00:00 UTC,2445900.750000,29.6633,-93.4786,0090,4.60,3.86,6.0000,50.0000
1984-07-19 06:30:00 UTC,2445900.770833,29.6633,-93.4786,0090,5.12,4.77,7.0000,47.0000
1984-07-19 07:00:00 UTC,2445900.791667,29.6633,-93.4786,0090,6.71,4.36,8.0000,57.0000
1984-07-19 07:30:00 UTC,2445900.812500,29.6633,-93.4786,0090,8.48,5.30,10.0000,58.0000
1984-07-19 08:00:00 UTC,2445900.833333,29.6633,-93.4786,0090,9.01,6.31,11.0000,55.0000
1984-07-19 08:30:00 UTC,2445900.854167,29.6633,-93.4786,0090,7.19,5.42,9.0000,53.0000
1984-07-19 09:00:00 UTC,2445900.875000,29.6633,-93.4786,0090,4.39,4.09,6.0000,47.0000
1984-07-19 09:30:00 UTC,2445900.895833,29.6633,-93.4786,0090,2.68,2.97,4.0000,42.0000
1984-07-19 10:00:00 UTC,2445900.916667,29.6633,-93.4786,0090,2.00,3.46,4.0000,30.0000
1984-07-19 10:30:00 UTC,2445900.937500,29.6633,-93.4786,0090,1.24,3.80,4.0000,18.0000
1984-07-19 11:00:00 UTC,2445900.958333,29.6633,-93.4786,0090,1.50,3.71,4.0000,22.0000
1984-07-19 11:30:00 UTC,2445900.979167,29.6633,-93.4786,0090,2.87,4.10,5.0000,35.0000
1984-07-19 12:00:00 UTC,2445901.000000,29.6633,-93.4786,0090,3.54,3.54,5.0000,45.0000
1984-07-19 12:30:00 UTC,2445901.020833,29.6633,-93.4786,0090,1.85,2.36,3.0000,38.0000
1984-07-19 13:00:00 UTC,2445901.041667,29.6633,-93.4786,0090,-0.52,1.93,2.0000,345.0000
1984-07-19 13:30:00 UTC,2445901.062500,29.6633,-93.4786,0090,-1.03,2.82,3.0000,340.0000
1984-07-19 14:00:00 UTC,2445901.083333,29.6633,-93.4786,0090,1.39,1.44,2.0000,44.0000
1984-07-19 14:30:00 UTC,2445901.104167,29.6633,-93.4786,0090,3.99,-0.21,4.0000,93.0000
1984-07-19 15:00:00 UTC,2445901.125000,29.6633,-93.4786,0090,6.97,-0.61,7.0000,95.0000
1984-07-19 15:30:00 UTC,2445901.145833,29.6633,-93.4786,0090,7.97,0.70,8.0000,85.0000
1984-07-19 16:00:00 UTC,2445901.166667,29.6633,-93.4786,0090,6.95,0.85,7.0000,83.0000
1984-07-19 16:30:00 UTC,2445901.187500,29.6633,-93.4786,0090,6.99,-0.37,7.0000,93.0000
1984-07-19 17:00:00 UTC,2445901.208333,29.6633,-93.4786,0090,6.79,-1.69,7.0000,104.0000
1984-07-19 17:30:00 UTC,2445901.229167,29.6633,-93.4786,0090,5.56,-2.25,6.0000,112.0000
1984-07-19 18:00:00 UTC,2445901.250000,29.6633,-93.4786,0090,2.46,-3.15,4.0000,142.0000
1984-07-19 18:30:00 UTC,2445901.270833,29.6633,-93.4786,0090,0.31,-5.99,6.0000,177.0000
1984-07-19 19:00:00 UTC,2445901.291667,29.6633,-93.4786,0090,0.10,-6.00,6.0000,179.0000
1984-07-19 19:30:00 UTC,2445901.312500,29.6633,-93.4786,0090,0.09,-5.00,5.0000,179.0000
1984-07-19 20:00:00 UTC,2445901.333333,29.6633,-93.4786,0090,-0.47,-2.96,3.0000,189.0000
1984-07-19 20:30:00 UTC,2445901.354167,29.6633,-93.4786,0090,-0.63,-0.78,1.0000,219.0000
1984-07-19 21:00:00 UTC,2445901.375000,29.6633,-93.4786,0090,0.00,-0.00,0.0000,122.0000
1984-07-19 21:30:00 UTC,2445901.395833,29.6633,-93.4786,0090,1.03,-1.71,2.0000,149.0000
1984-07-19 22:00:00 UTC,2445901.416667,29.6633,-93.4786,0090,0.76,-3.93,4.0000,169.0000
1984-07-19 22:30:00 UTC,2445901.437500,29.6633,-93.4786,0090,-0.61,-4.96,5.0000,187.0000
1984-07-19 23:00:00 UTC,2445901.458333,29.6633,-93.4786,0090,-1.46,-4.78,5.0000,197.0000
1984-07-19 23:30:00 UTC,2445901.479167,29.6633,-93.4786,0090,-2.19,-4.49,5.0000,206.0000
1984-07-20 00:00:00 UTC,2445901.500000,29.6633,-93.4786,0090,-3.86,-4.60,6.0000,220.0000
1984-07-20 00:30:00 UTC,2445901.520833,29.6633,-93.4786,0090,-5.85,-5.46,8.0000,227.0000
1984-07-20 01:00:00 UTC,2445901.541667,29.6633,-93.4786,0090,-7.31,-6.82,10.0000,227.0000
1984-07-20 01:30:00 UTC,2445901.562500,29.6633,-93.4786,0090,-8.30,-7.22,11.0000,229.0000
1984-07-20 02:00:00 UTC,2445901.583333,29.6633,-93.4786,0090,-8.19,-5.74,10.0000,235.0000
1984-07-20 02:30:00 UTC,2445901.604167,29.6633,-93.4786,0090,-7.71,-4.64,9.0000,239.0000
1984-07-20 03:00:00 UTC,2445901.625000,29.6633,-93.4786,0090,-7.88,-6.16,10.0000,232.0000
1984-07-20 03:30:00 UTC,2445901.645833,29.6633,-93.4786,0090,-7.64,-7.91,11.0000,224.0000
1984-07-20 04:00:00 UTC,2445901.666667,29.6633,-93.4786,0090,-7.36,-8.17,11.0000,222.0000
1984-07-20 04:30:00 UTC,2445901.687500,29.6633,-93.4786,0090,-6.56,-7.55,10.0000,221.0000
1984-07-20 05:00:00 UTC,2445901.708333,29.6633,-93.4786,0090,-6.58,-6.14,9.0000,227.0000
1984-07-20 05:30:00 UTC,2445901.729167,29.6633,-93.4786,0090,-8.75,-4.85,10.0000,241.0000
1984-07-20 06:00:00 UTC,2445901.750000,29.6633,-93.4786,0090,-10.46,-3.40,11.0000,252.0000
1984-07-20 06:30:00 UTC,2445901.770833,29.6633,-93.4786,0090,-11.54,-3.31,12.0000,254.0000
1984-07-20 07:00:00 UTC,2445901.791667,29.6633,-93.4786,0090,-10.13,-4.30,11.0000,247.0000
1984-07-20 07:30:00 UTC,2445901.812500,29.6633,-93.4786,0090,-7.37,-5.16,9.0000,235.0000
1984-07-20 08:00:00 UTC,2445901.833333,29.6633,-93.4786,0090,-7.28,-5.29,9.0000,234.0000
1984-07-20 08:30:00 UTC,2445901.854167,29.6633,-93.4786,0090,-8.83,-4.69,10.0000,242.0000
1984-07-20 09:00:00 UTC,2445901.875000,29.6633,-93.4786,0090,-10.96,-4.88,12.0000,246.0000
1984-07-20 09:30:00 UTC,2445901.895833,29.6633,-93.4786,0090,-12.22,-4.45,13.0000,250.0000
1984-07-20 10:00:00 UTC,2445901.916667,29.6633,-93.4786,0090,-12.43,-3.80,13.0000,253.0000
1984-07-20 10:30:00 UTC,2445901.937500,29.6633,-93.4786,0090,-12.98,-5.24,14.0000,248.0000
1984-07-20 11:00:00 UTC,2445901.958333,29.6633,-93.4786,0090,-13.81,-5.86,15.0000,247.0000
1984-07-20 11:30:00 UTC,2445901.979167,29.6633,-93.4786,0090,-12.22,-4.45,13.0000,250.0000
1984-07-20 12:00:00 UTC,2445902.000000,29.6633,-93.4786,0090,-9.27,-3.75,10.0000,248.0000
1984-07-20 12:30:00 UTC,2445902.020833,29.6633,-93.4786,0090,-8.09,-3.95,9.0000,244.0000
1984-07-20 13:00:00 UTC,2445902.041667,29.6633,-93.4786,0090,-9.06,-4.23,10.0000,245.0000
1984-07-20 13:30:00 UTC,2445902.062500,29.6633,-93.4786,0090,-9.21,-3.91,10.0000,247.0000
1984-07-20 14:00:00 UTC,2445902.083333,29.6633,-93.4786,0090,-8.40,-3.23,9.0000,249.0000
1984-07-20 14:30:00 UTC,2445902.104167,29.6633,-93.4786,0090,-7.56,-2.60,8.0000,251.0000
1984-07-20 15:00:00 UTC,2445902.125000,29.6633,-93.4786,0090,-6.66,-2.16,7.0000,252.0000
1984-07-20 15:30:00 UTC,2445902.145833,29.6633,-93.4786,0090,-6.54,-2.51,7.0000,249.0000
1984-07-20 16:00:00 UTC,2445902.166667,29.6633,-93.4786,0090,-5.87,-3.81,7.0000,237.0000
1984-07-20 16:30:00 UTC,2445902.187500,29.6633,-93.4786,0090,-6.39,-4.81,8.0000,233.0000
1984-07-20 17:00:00 UTC,2445902.208333,29.6633,-93.4786,0090,-6.86,-4.12,8.0000,239.0000
1984-07-20 17:30:00 UTC,2445902.229167,29.6633,-93.4786,0090,-5.80,-3.91,7.0000,236.0000
1984-07-20 18:00:00 UTC,2445902.250000,29.6633,-93.4786,0090,-5.66,-5.66,8.0000,225.0000
1984-07-20 18:30:00 UTC,2445902.270833,29.6633,-93.4786,0090,-6.36,-6.36,9.0000,225.0000
1984-07-20 19:00:00 UTC,2445902.291667,29.6633,-93.4786,0090,-7.09,-5.54,9.0000,232.0000
1984-07-20 19:30:00 UTC,2445902.312500,29.6633,-93.4786,0090,-7.19,-5.42,9.0000,233.0000
1984-07-20 20:00:00 UTC,2445902.333333,29.6633,-93.4786,0090,-7.43,-6.69,10.0000,228.0000
1984-07-20 20:30:00 UTC,2445902.354167,29.6633,-93.4786,0090,-6.56,-7.55,10.0000,221.0000
1984-07-20 21:00:00 UTC,2445902.375000,29.6633,-93.4786,0090,-6.82,-7.31,10.0000,223.0000
1984-07-20 21:30:00 UTC,2445902.395833,29.6633,-93.4786,0090,-9.58,-7.22,12.0000,233.0000
1984-07-20 22:00:00 UTC,2445902.416667,29.6633,-93.4786,0090,-11.87,-7.42,14.0000,238.0000
1984-07-20 22:30:00 UTC,2445902.437500,29.6633,-93.4786,0090,-12.12,-7.00,14.0000,240.0000
1984-07-20 23:00:00 UTC,2445902.458333,29.6633,-93.4786,0090,-12.36,-6.57,14.0000,242.0000
1984-07-20 23:30:00 UTC,2445902.479167,29.6633,-93.4786,0090,-13.37,-6.81,15.0000,243.0000
1984-07-21 00:00:00 UTC,2445902.500000,29.6633,-93.4786,0090,-14.50,-6.76,16.0000,245.0000
1984-07-21 00:30:00 UTC,2445902.520833,29.6633,-93.4786,0090,-15.65,-6.64,17.0000,247.0000
1984-07-21 01:00:00 UTC,2445902.541667,29.6633,-93.4786,0090,-15.65,-6.64,17.0000,247.0000
1984-07-21 01:30:00 UTC,2445902.562500,29.6633,-93.4786,0090,-15.41,-7.18,17.0000,245.0000
1984-07-21 02:00:00 UTC,2445902.583333,29.6633,-93.4786,0090,-15.15,-7.72,17.0000,243.0000
1984-07-21 02:30:00 UTC,2445902.604167,29.6633,-93.4786,0090,-15.28,-7.45,17.0000,244.0000
1984-07-21 03:00:00 UTC,2445902.625000,29.6633,-93.4786,0090,-14.26,-7.26,16.0000,243.0000
1984-07-21 03:30:00 UTC,2445902.645833,29.6633,-93.4786,0090,-12.12,-7.00,14.0000,240.0000
1984-07-21 04:00:00 UTC,2445902.666667,29.6633,-93.4786,0090,-10.06,-6.54,12.0000,237.0000
1984-07-21 04:30:00 UTC,2445902.687500,29.6633,-93.4786,0090,-9.46,-7.39,12.0000,232.0000
1984-07-21 05:00:00 UTC,2445902.708333,29.6633,-93.4786,0090,-9.33,-7.55,12.0000,231.0000
1984-07-21 05:30:00 UTC,2445902.729167,29.6633,-93.4786,0090,-10.78,-7.27,13.0000,236.0000
1984-07-21 06:00:00 UTC,2445902.750000,29.6633,-93.4786,0090,-10.90,-7.08,13.0000,237.0000
1984-07-21 06:30:00 UTC,2445902.770833,29.6633,-93.4786,0090,-9.58,-7.22,12.0000,233.0000
1984-07-21 07:00:00 UTC,2445902.791667,29.6633,-93.4786,0090,-8.78,-6.62,11.0000,233.0000
1984-07-21 07:30:00 UTC,2445902.812500,29.6633,-93.4786,0090,-8.48,-5.30,10.0000,238.0000
1984-07-21 08:00:00 UTC,2445902.833333,29.6633,-93.4786,0090,-8.75,-4.85,10.0000,241.0000
1984-07-21 08:30:00 UTC,2445902.854167,29.6633,-93.4786,0090,-8.57,-5.15,10.0000,239.0000
1984-07-21 09:00:00 UTC,2445902.875000,29.6633,-93.4786,0090,-7.79,-4.50,9.0000,240.0000
1984-07-21 09:30:00 UTC,2445902.895833,29.6633,-93.4786,0090,-7.19,-3.51,8.0000,244.0000
1984-07-21 10:00:00 UTC,2445902.916667,29.6633,-93.4786,0090,-6.66,-2.16,7.0000,252.0000
1984-07-21 10:30:00 UTC,2445902.937500,29.6633,-93.4786,0090,-6.93,-0.97,7.0000,262.0000
1984-07-21 11:00:00 UTC,2445902.958333,29.6633,-93.4786,0090,-6.00,-0.21,6.0000,268.0000
1984-07-21 11:30:00 UTC,2445902.979167,29.6633,-93.4786,0090,-6.00,0.10,6.0000,271.0000
1984-07-21 12:00:00 UTC,2445903.000000,29.6633,-93.4786,0090,-6.00,-0.21,6.0000,268.0000
1984-07-21 12:30:00 UTC,2445903.020833,29.6633,-93.4786,0090,-6.89,-1.22,7.0000,260.0000
1984-07-21 13:00:00 UTC,2445903.041667,29.6633,-93.4786,0090,-6.91,-1.10,7.0000,261.0000
1984-07-21 13:30:00 UTC,2445903.062500,29.6633,-93.4786,0090,-6.00,0.10,6.0000,271.0000
1984-07-21 14:00:00 UTC,2445903.083333,29.6633,-93.4786,0090,-4.00,-0.00,4.0000,270.0000
1984-07-21 14:30:00 UTC,2445903.104167,29.6633,-93.4786,0090,-3.53,-1.88,4.0000,242.0000
1984-07-21 15:00:00 UTC,2445903.125000,29.6633,-93.4786,0090,-4.60,-1.95,5.0000,247.0000
1984-07-21 15:30:00 UTC,2445903.145833,29.6633,-93.4786,0090,-5.82,-1.45,6.0000,256.0000
1984-07-21 16:00:00 UTC,2445903.166667,29.6633,-93.4786,0090,-4.53,-2.11,5.0000,245.0000
1984-07-21 16:30:00 UTC,2445903.187500,29.6633,-93.4786,0090,-3.89,-3.15,5.0000,231.0000
1984-07-21 17:00:00 UTC,2445903.208333,29.6633,-93.4786,0090,-3.60,-3.47,5.0000,226.0000
1984-07-21 17:30:00 UTC,2445903.229167,29.6633,-93.4786,0090,-4.01,-4.46,6.0000,222.0000
1984-07-21 18:00:00 UTC,2445903.250000,29.6633,-93.4786,0090,-3.94,-4.53,6.0000,221.0000
1984-07-21 18:30:00 UTC,2445903.270833,29.6633,-93.4786,0090,-3.86,-4.60,6.0000,220.0000
1984-07-21 19:00:00 UTC,2445903.291667,29.6633,-93.4786,0090,-3.53,-4.85,6.0000,216.0000
1984-07-21 19:30:00 UTC,2445903.312500,29.6633,-93.4786,0090,-3.61,-6.00,7.0000,211.0000
1984-07-21 20:00:00 UTC,2445903.333333,29.6633,-93.4786,0090,-3.00,-7.42,8.0000,202.0000
1984-07-21 20:30:00 UTC,2445903.354167,29.6633,-93.4786,0090,-2.02,-8.77,9.0000,193.0000
1984-07-21 21:00:00 UTC,2445903.375000,29.6633,-93.4786,0090,-2.42,-9.70,10.0000,194.0000
1984-07-21 21:30:00 UTC,2445903.395833,29.6633,-93.4786,0090,-3.42,-9.40,10.0000,200.0000
1984-07-21 22:00:00 UTC,2445903.416667,29.6633,-93.4786,0090,-5.00,-8.66,10.0000,210.0000
1984-07-21 22:30:00 UTC,2445903.437500,29.6633,-93.4786,0090,-6.95,-7.19,10.0000,224.0000
1984-07-21 23:00:00 UTC,2445903.458333,29.6633,-93.4786,0090,-8.09,-5.88,10.0000,234.0000
1984-07-21 23:30:00 UTC,2445903.479167,29.6633,-93.4786,0090,-9.53,-5.50,11.0000,240.0000
1984-07-22 00:00:00 UTC,2445903.500000,29.6633,-93.4786,0090,-9.97,-4.65,11.0000,245.0000
1984-07-22 00:30:00 UTC,2445903.520833,29.6633,-93.4786,0090,-10.96,-4.88,12.0000,246.0000
1984-07-22 01:00:00 UTC,2445903.541667,29.6633,-93.4786,0090,-11.58,-5.90,13.0000,243.0000
1984-07-22 01:30:00 UTC,2445903.562500,29.6633,-93.4786,0090,-12.36,-6.57,14.0000,242.0000
1984-07-22 02:00:00 UTC,2445903.583333,29.6633,-93.4786,0090,-12.58,-6.14,14.0000,244.0000
1984-07-22 02:30:00 UTC,2445903.604167,29.6633,-93.4786,0090,-12.79,-5.69,14.0000,246.0000
1984-07-22 03:00:00 UTC,2445903.625000,29.6633,-93.4786,0090,-12.58,-6.14,14.0000,244.0000
1984-07-22 03:30:00 UTC,2445903.645833,29.6633,-93.4786,0090,-11.37,-6.30,13.0000,241.0000
1984-07-22 04:00:00 UTC,2445903.666667,29.6633,-93.4786,0090,-9.62,-5.33,11.0000,241.0000
1984-07-22 04:30:00 UTC,2445903.687500,29.6633,-93.4786,0090,-8.75,-4.85,10.0000,241.0000
1984-07-22 05:00:00 UTC,2445903.708333,29.6633,-93.4786,0090,-7.63,-4.77,9.0000,238.0000
1984-07-22 05:30:00 UTC,2445903.729167,29.6633,-93.4786,0090,-7.63,-4.77,9.0000,238.0000
1984-07-22 06:00:00 UTC,2445903.750000,29.6633,-93.4786,0090,-7.95,-4.23,9.0000,242.0000
1984-07-22 06:30:00 UTC,2445903.770833,29.6633,-93.4786,0090,-7.36,-3.13,8.0000,247.0000
1984-07-22 07:00:00 UTC,2445903.791667,29.6633,-93.4786,0090,-6.54,-2.51,7.0000,249.0000
1984-07-22 07:30:00 UTC,2445903.812500,29.6633,-93.4786,0090,-5.20,-3.00,6.0000,240.0000
1984-07-22 08:00:00 UTC,2445903.833333,29.6633,-93.4786,0090,-4.05,-2.94,5.0000,234.0000
1984-07-22 08:30:00 UTC,2445903.854167,29.6633,-93.4786,0090,-3.28,-2.29,4.0000,235.0000
1984-07-22 09:00:00 UTC,2445903.875000,29.6633,-93.4786,0090,-2.36,-1.85,3.0000,232.0000
1984-07-22 09:30:00 UTC,2445903.895833,29.6633,-93.4786,0090,-2.36,-1.85,3.0000,232.0000
1984-07-22 10:00:00 UTC,2445903.916667,29.6633,-93.4786,0090,-1.70,-1.06,2.0000,238.0000
1984-07-22 10:30:00 UTC,2445903.937500,29.6633,-93.4786,0090,-0.96,-0.29,1.0000,253.0000
1984-07-22 11:00:00 UTC,2445903.958333,29.6633,-93.4786,0090,-0.99,0.14,1.0000,278.0000
1984-07-22 11:30:00 UTC,2445903.979167,29.6633,-93.4786,0090,-0.80,0.60,1.0000,307.0000
1984-07-22 12:00:00 UTC,2445904.000000,29.6633,-93.4786,0090,-0.36,0.93,1.0000,339.0000
1984-07-22 12:30:00 UTC,2445904.020833,29.6633,-93.4786,0090,-0.56,0.83,1.0000,326.0000
1984-07-22 13:00:00 UTC,2445904.041667,29.6633,-93.4786,0090,-1.66,1.12,2.0000,304.0000
1984-07-22 13:30:00 UTC,2445904.062500,29.6633,-93.4786,0090,-2.36,1.85,3.0000,308.0000
1984-07-22 14:00:00 UTC,2445904.083333,29.6633,-93.4786,0090,-1.58,1.23,2.0000,308.0000
1984-07-22 14:30:00 UTC,2445904.104167,29.6633,-93.4786,0090,-1.80,0.88,2.0000,296.0000
1984-07-22 15:00:00 UTC,2445904.125000,29.6633,-93.4786,0090,-0.95,0.31,1.0000,288.0000
1984-07-22 15:30:00 UTC,2445904.145833,29.6633,-93.4786,0090,-0.89,0.45,1.0000,297.0000
1984-07-22 16:00:00 UTC,2445904.166667,29.6633,-93.4786,0090,-0.96,-0.28,1.0000,254.0000
1984-07-22 16:30:00 UTC,2445904.187500,29.6633,-93.4786,0090,-1.00,-1.73,2.0000,210.0000
1984-07-22 17:00:00 UTC,2445904.208333,29.6633,-93.4786,0090,-0.07,-2.00,2.0000,182.0000
1984-07-22 17:30:00 UTC,2445904.229167,29.6633,-93.4786,0090,1.88,-3.53,4.0000,152.0000
1984-07-22 18:00:00 UTC,2445904.250000,29.6633,-93.4786,0090,3.08,-3.94,5.0000,142.0000
1984-07-22 18:30:00 UTC,2445904.270833,29.6633,-93.4786,0090,3.69,-4.73,6.0000,142.0000
1984-07-22 19:00:00 UTC,2445904.291667,29.6633,-93.4786,0090,4.77,-5.12,7.0000,137.0000
1984-07-22 19:30:00 UTC,2445904.312500,29.6633,-93.4786,0090,4.50,-5.36,7.0000,140.0000
1984-07-22 20:00:00 UTC,2445904.333333,29.6633,-93.4786,0090,3.88,-7.00,8.0000,151.0000
1984-07-22 20:30:00 UTC,2445904.354167,29.6633,-93.4786,0090,3.13,-7.36,8.0000,157.0000
1984-07-22 21:00:00 UTC,2445904.375000,29.6633,-93.4786,0090,3.25,-7.31,8.0000,156.0000
1984-07-22 21:30:00 UTC,2445904.395833,29.6633,-93.4786,0090,2.85,-6.39,7.0000,156.0000
1984-07-22 22:00:00 UTC,2445904.416667,29.6633,-93.4786,0090,2.28,-6.62,7.0000,161.0000
1984-07-22 22:30:00 UTC,2445904.437500,29.6633,-93.4786,0090,1.81,-6.76,7.0000,165.0000
1984-07-22 23:00:00 UTC,2445904.458333,29.6633,-93.4786,0090,0.52,-5.98,6.0000,175.0000
1984-07-22 23:30:00 UTC,2445904.479167,29.6633,-93.4786,0090,-1.38,-4.81,5.0000,196.0000
1984-07-23 00:00:00 UTC,2445904.500000,29.6633,-93.4786,0090,-2.65,-4.24,5.0000,212.0000
1984-07-23 00:30:00 UTC,2445904.520833,29.6633,-93.4786,0090,-4.50,-5.36,7.0000,220.0000
1984-07-23 01:00:00 UTC,2445904.541667,29.6633,-93.4786,0090,-5.95,-5.35,8.0000,228.0000
1984-07-23 01:30:00 UTC,2445904.562500,29.6633,-93.4786,0090,-7.87,-4.36,9.0000,241.0000
1984-07-23 02:00:00 UTC,2445904.583333,29.6633,-93.4786,0090,-8.56,-2.78,9.0000,252.0000
1984-07-23 02:30:00 UTC,2445904.604167,29.6633,-93.4786,0090,-10.20,-4.12,11.0000,248.0000
1984-07-23 03:00:00 UTC,2445904.625000,29.6633,-93.4786,0090,-11.88,-5.29,13.0000,246.0000
1984-07-23 03:30:00 UTC,2445904.645833,29.6633,-93.4786,0090,-10.57,-3.03,11.0000,254.0000
1984-07-23 04:00:00 UTC,2445904.666667,29.6633,-93.4786,0090,-7.94,-0.97,8.0000,263.0000
1984-07-23 04:30:00 UTC,2445904.687500,29.6633,-93.4786,0090,-4.96,-0.61,5.0000,263.0000
1984-07-23 05:00:00 UTC,2445904.708333,29.6633,-93.4786,0090,-4.96,-0.61,5.0000,263.0000
1984-07-23 05:30:00 UTC,2445904.729167,29.6633,-93.4786,0090,-3.98,0.42,4.0000,276.0000
1984-07-23 06:00:00 UTC,2445904.750000,29.6633,-93.4786,0090,-3.73,1.43,4.0000,291.0000
1984-07-23 06:30:00 UTC,2445904.770833,29.6633,-93.4786,0090,-2.65,1.41,3.0000,298.0000
1984-07-23 07:00:00 UTC,2445904.791667,29.6633,-93.4786,0090,-1.26,1.55,2.0000,321.0000
1984-07-23 07:30:00 UTC,2445904.812500,29.6633,-93.4786,0090,-0.73,2.91,3.0000,346.0000
1984-07-23 08:00:00 UTC,2445904.833333,29.6633,-93.4786,0090,-1.04,4.89,5.0000,348.0000
1984-07-23 08:30:00 UTC,2445904.854167,29.6633,-93.4786,0090,-1.55,4.76,5.0000,342.0000
1984-07-23 09:00:00 UTC,2445904.875000,29.6633,-93.4786,0090,-0.21,2.99,3.0000,356.0000
1984-07-23 09:30:00 UTC,2445904.895833,29.6633,-93.4786,0090,3.66,3.41,5.0000,47.0000
1984-07-23 10:00:00 UTC,2445904.916667,29.6633,-93.4786,0090,5.14,6.13,8.0000,40.0000
1984-07-23 10:30:00 UTC,2445904.937500,29.6633,-93.4786,0090,2.87,7.47,8.0000,21.0000
1984-07-23 11:00:00 UTC,2445904.958333,29.6633,-93.4786,0090,1.39,7.88,8.0000,10.0000
1984-07-23 11:30:00 UTC,2445904.979167,29.6633,-93.4786,0090,1.11,7.92,8.0000,8.0000
1984-07-23 12:00:00 UTC,2445905.000000,29.6633,-93.4786,0090,1.25,8.91,9.0000,8.0000
1984-07-23 12:30:00 UTC,2445905.020833,29.6633,-93.4786,0090,1.25,8.91,9.0000,8.0000
1984-07-23 13:00:00 UTC,2445905.041667,29.6633,-93.4786,0090,1.11,7.92,8.0000,8.0000
1984-07-23 13:30:00 UTC,2445905.062500,29.6633,-93.4786,0090,0.94,8.95,9.0000,6.0000
1984-07-23 14:00:00 UTC,2445905.083333,29.6633,-93.4786,0090,-0.14,8.00,8.0000,359.0000
1984-07-23 14:30:00 UTC,2445905.104167,29.6633,-93.4786,0090,-1.25,5.87,6.0000,348.0000
1984-07-23 15:00:00 UTC,2445905.125000,29.6633,-93.4786,0090,-2.15,5.60,6.0000,339.0000
1984-07-23 15:30:00 UTC,2445905.145833,29.6633,-93.4786,0090,-2.35,4.41,5.0000,332.0000
1984-07-23 16:00:00 UTC,2445905.166667,29.6633,-93.4786,0090,-2.35,3.24,4.0000,324.0000
1984-07-23 16:30:00 UTC,2445905.187500,29.6633,-93.4786,0090,-2.78,2.88,4.0000,316.0000
1984-07-23 17:00:00 UTC,2445905.208333,29.6633,-93.4786,0090,-1.37,3.76,4.0000,340.0000
1984-07-23 17:30:00 UTC,2445905.229167,29.6633,-93.4786,0090,2.35,4.41,5.0000,28.0000
1984-07-23 18:00:00 UTC,2445905.250000,29.6633,-93.4786,0090,1.45,2.62,3.0000,29.0000
1984-07-23 18:30:00 UTC,2445905.270833,29.6633,-93.4786,0090,-5.00,-0.09,5.0000,269.0000
1984-07-23 19:00:00 UTC,2445905.291667,29.6633,-93.4786,0090,-7.71,-9.19,12.0000,220.0000
1984-07-23 19:30:00 UTC,2445905.312500,29.6633,-93.4786,0090,-2.23,-15.84,16.0000,188.0000
1984-07-23 20:00:00 UTC,2445905.333333,29.6633,-93.4786,0090,6.81,-13.37,15.0000,153.0000
1984-07-23 20:30:00 UTC,2445905.354167,29.6633,-93.4786,0090,8.18,-8.78,12.0000,137.0000
1984-07-23 21:00:00 UTC,2445905.375000,29.6633,-93.4786,0090,2.74,-6.44,7.0000,157.0000
1984-07-23 21:30:00 UTC,2445905.395833,29.6633,-93.4786,0090,-4.21,-5.59,7.0000,217.0000
1984-07-23 22:00:00 UTC,2445905.416667,29.6633,-93.4786,0090,-10.78,-7.27,13.0000,236.0000
1984-07-23 22:30:00 UTC,2445905.437500,29.6633,-93.4786,0090,-13.26,-8.95,16.0000,236.0000
1984-07-23 23:00:00 UTC,2445905.458333,29.6633,-93.4786,0090,-12.94,-9.40,16.0000,234.0000
1984-07-23 23:30:00 UTC,2445905.479167,29.6633,-93.4786,0090,-14.72,-8.50,17.0000,240.0000
1984-07-24 00:00:00 UTC,2445905.500000,29.6633,-93.4786,0090,-13.59,-6.34,15.0000,245.0000
1984-07-24 00:30:00 UTC,2445905.520833,29.6633,-93.4786,0090,-11.68,-5.70,13.0000,244.0000
1984-07-24 01:00:00 UTC,2445905.541667,29.6633,-93.4786,0090,-12.24,-6.79,14.0000,241.0000
1984-07-24 01:30:00 UTC,2445905.562500,29.6633,-93.4786,0090,-14.57,-8.76,17.0000,239.0000
1984-07-24 02:00:00 UTC,2445905.583333,29.6633,-93.4786,0090,-14.42,-9.01,17.0000,238.0000
1984-07-24 02:30:00 UTC,2445905.604167,29.6633,-93.4786,0090,-13.12,-7.27,15.0000,241.0000
1984-07-24 03:00:00 UTC,2445905.625000,29.6633,-93.4786,0090,-13.24,-7.04,15.0000,242.0000
1984-07-24 03:30:00 UTC,2445905.645833,29.6633,-93.4786,0090,-12.58,-8.17,15.0000,237.0000
1984-07-24 04:00:00 UTC,2445905.666667,29.6633,-93.4786,0090,-11.18,-8.43,14.0000,233.0000
1984-07-24 04:30:00 UTC,2445905.687500,29.6633,-93.4786,0090,-11.74,-7.62,14.0000,237.0000
1984-07-24 05:00:00 UTC,2445905.708333,29.6633,-93.4786,0090,-12.12,-7.00,14.0000,240.0000
1984-07-24 05:30:00 UTC,2445905.729167,29.6633,-93.4786,0090,-13.99,-7.76,16.0000,241.0000
1984-07-24 06:00:00 UTC,2445905.750000,29.6633,-93.4786,0090,-13.86,-8.00,16.0000,240.0000
1984-07-24 06:30:00 UTC,2445905.770833,29.6633,-93.4786,0090,-13.11,-9.18,16.0000,235.0000
1984-07-24 07:00:00 UTC,2445905.791667,29.6633,-93.4786,0090,-12.14,-8.82,15.0000,234.0000
1984-07-24 07:30:00 UTC,2445905.812500,29.6633,-93.4786,0090,-11.47,-8.03,14.0000,235.0000
1984-07-24 08:00:00 UTC,2445905.833333,29.6633,-93.4786,0090,-12.29,-8.60,15.0000,235.0000
1984-07-24 08:30:00 UTC,2445905.854167,29.6633,-93.4786,0090,-12.72,-7.95,15.0000,238.0000
1984-07-24 09:00:00 UTC,2445905.875000,29.6633,-93.4786,0090,-12.24,-6.79,14.0000,241.0000
1984-07-24 09:30:00 UTC,2445905.895833,29.6633,-93.4786,0090,-11.47,-8.03,14.0000,235.0000
1984-07-24 10:00:00 UTC,2445905.916667,29.6633,-93.4786,0090,-10.97,-10.23,15.0000,227.0000
1984-07-24 10:30:00 UTC,2445905.937500,29.6633,-93.4786,0090,-10.72,-9.00,14.0000,230.0000